Regional Weather Roundup
Issued by NWS Charleston, WV

Home | Current Version | Previous Version | Graphics & Text | Print | Product List | Glossary On
Versions: 1 2 3 4 5 6 7 8 9 10 11 12 13 14 15 16 17 18 19 20 21 22 23 24 25 26 27 28 29 30 31 32 33 34 35 36 37 38 39 40 41 42 43 44 45 46 47 48 49 50
000
ASUS41 KRLX 051810
RWRRLX
West Virginia Regional Weather Roundup
National Weather Service Charleston WV
100 PM EST MON DEC 05 2016

Note: "fair" indicates few or no clouds below 12,000 feet with no
significant weather and/or obstructions to visibility.

WVZ003-051900-
Northern Panhandle of West Virginia

CITY           SKY/WX    TMP DP  RH WIND       PRES   REMARKS
WHEELING       PTSUNNY   39  28  64 VRB3      30.08S
$$

WVZ009-051900-
Northwest West Virginia

CITY           SKY/WX    TMP DP  RH WIND       PRES   REMARKS
PARKERSBURG    CLOUDY    43  31  62 VRB3      30.12F
$$

WVZ006-051900-
Western West Virginia

CITY           SKY/WX    TMP DP  RH WIND       PRES   REMARKS
HUNTINGTON     PTSUNNY   49  35  58 CALM      30.09F
$$

WVZ015-051900-
West Central West Virginia

CITY           SKY/WX    TMP DP  RH WIND       PRES   REMARKS
CHARLESTON     MOSUNNY   50  36  58 CALM      30.06F
$$

WVZ022-031-051900-
North Central West Virginia

CITY           SKY/WX    TMP DP  RH WIND       PRES   REMARKS
CLARKSBURG     PTSUNNY   47  34  60 W7        30.06F
MORGANTOWN     CLOUDY    49  33  54 NW6       30.06S
$$

WVZ025-035-042-045-051900-
Southern West Virginia

CITY           SKY/WX    TMP DP  RH WIND       PRES   REMARKS
BECKLEY        CLOUDY    44  33  65 W5        30.04F
LOGAN            N/A     50  36  57 CALM      30.05F
BLUEFIELD      CLOUDY    46  35  65 CALM      30.02F
LEWISBURG      SUNNY     45  33  61 CALM      30.04S
$$

WVZ047-051900-
Northern Mountains of West Virginia

CITY           SKY/WX    TMP DP  RH WIND       PRES   REMARKS
ELKINS         MOSUNNY   46  34  62 W9        30.04F
$$

WVZ052-051900-
Eastern Panhandle of West Virginia

CITY           SKY/WX    TMP DP  RH WIND       PRES   REMARKS
MARTINSBURG    SUNNY     52  33  48 NW15      30.01S
PETERSBURG     SUNNY     54  33  44 NW9       30.02F
$$



USA.gov is the U.S. government's official web portal to all federal, state and local government web resources and services.